| time (UTC) | temp C | wind direction | speed KPH | gust KPH | rain 1hr cm | rain 24hr cm | rain mn cm | humidity % | barometer mb |
| 20260903010659 | 28 | 208 | 6.4 | 9.7 | 0.00 | 0.00 | 0.00 | 77 | 1015.4 |
| 20260903010159 | 28 | 204 | 6.4 | 9.7 | 0.00 | 0.00 | 0.00 | 76 | 1015.4 |
| 20260903005658 | 29 | 210 | 4.8 | 8.0 | 0.00 | 0.00 | 0.00 | 76 | 1015.3 |
| 20260903005153 | 29 | 193 | 4.8 | 8.0 | 0.00 | 0.00 | 0.00 | 76 | 1015.3 |
| 20260903004649 | 29 | 214 | 8.0 | 9.7 | 0.00 | 0.00 | 0.00 | 75 | 1015.3 |
| 20260903004143 | 29 | 198 | 4.8 | 6.4 | 0.00 | 0.00 | 0.00 | 76 | 1015.2 |
| 20260903003639 | 29 | 211 | 4.8 | 6.4 | 0.00 | 0.00 | 0.00 | 76 | 1015.1 |
| 20260903003134 | 29 | 195 | 4.8 | 11.3 | 0.00 | 0.00 | 0.00 | 75 | 1015.1 |
| 20260903002630 | 29 | 203 | 3.2 | 9.7 | 0.00 | 0.00 | 0.00 | 75 | 1015.3 |
| 20260903002124 | 30 | 199 | 4.8 | 11.3 | 0.00 | 0.00 | 0.00 | 75 | 1015.1 |
| 20260903001619 | 30 | 211 | 6.4 | 8.0 | 0.00 | 0.00 | 0.00 | 75 | 1015.2 |
| 20260903001119 | 30 | 210 | 6.4 | 14.5 | 0.00 | 0.00 | 0.00 | 74 | 1015.1 |
| 20260903000615 | 30 | 182 | 4.8 | 8.0 | 0.00 | 0.00 | 0.00 | 75 | 1015.1 |
| 20260903000114 | 30 | 185 | 6.4 | 9.7 | 0.00 | 0.00 | 0.00 | 74 | 1015.2 |
| 20260902235613 | 30 | 195 | 9.7 | 9.7 | 0.00 | 0.00 | 0.00 | 73 | 1015.2 |
| 20260902235108 | 30 | 195 | 9.7 | 9.7 | 0.00 | 0.00 | 0.00 | 72 | 1015.5 |
| 20260902234602 | 31 | 205 | 4.8 | 12.9 | 0.00 | 0.00 | 0.00 | 71 | 1015.4 |
| 20260902234101 | 31 | 241 | 0.0 | 8.0 | 0.00 | 0.00 | 0.00 | 71 | 1015.4 |
| 20260902233556 | 31 | 263 | 1.6 | 8.0 | 0.00 | 0.00 | 0.00 | 70 | 1015.4 |
| 20260902233056 | 31 | 217 | 9.7 | 9.7 | 0.00 | 0.00 | 0.00 | 69 | 1015.5 |
| 20260902232550 | 31 | 254 | 3.2 | 11.3 | 0.00 | 0.00 | 0.00 | 68 | 1015.5 |
| 20260902232049 | 31 | 228 | 6.4 | 17.7 | 0.00 | 0.00 | 0.00 | 68 | 1015.5 |
| 20260902231544 | 32 | 224 | 8.0 | 14.5 | 0.00 | 0.00 | 0.00 | 67 | 1015.7 |
| 20260902231039 | 32 | 211 | 4.8 | 17.7 | 0.00 | 0.00 | 0.00 | 66 | 1015.5 |
| 20260902230538 | 32 | 227 | 11.3 | 16.1 | 0.00 | 0.00 | 0.00 | 65 | 1015.3 |
| 20260902230037 | 32 | 199 | 1.6 | 14.5 | 0.00 | 0.00 | 0.00 | 66 | 1015.3 |
| 20260902225533 | 32 | 236 | 6.4 | 14.5 | 0.00 | 0.00 | 0.00 | 65 | 1015.4 |
| 20260902225032 | 32 | 230 | 9.7 | 14.5 | 0.00 | 0.00 | 0.00 | 64 | 1015.3 |
| 20260902224531 | 32 | 232 | 4.8 | 12.9 | 0.00 | 0.00 | 0.00 | 63 | 1015.3 |
| 20260902224027 | 32 | 238 | 11.3 | 12.9 | 0.00 | 0.00 | 0.00 | 62 | 1015.5 |
| 20260902223524 | 32 | 242 | 8.0 | 20.9 | 0.00 | 0.00 | 0.00 | 62 | 1015.5 |
| 20260902223022 | 33 | 266 | 6.4 | 8.0 | 0.00 | 0.00 | 0.00 | 62 | 1015.4 |
| 20260902222521 | 33 | 210 | 4.8 | 12.9 | 0.00 | 0.00 | 0.00 | 62 | 1015.5 |
| 20260902222021 | 33 | 220 | 9.7 | 14.5 | 0.00 | 0.00 | 0.00 | 63 | 1015.5 |
| 20260902221521 | 33 | 251 | 4.8 | 19.3 | 0.00 | 0.00 | 0.00 | 63 | 1015.5 |
| 20260902221016 | 33 | 223 | 6.4 | 16.1 | 0.00 | 0.00 | 0.00 | 62 | 1015.5 |
| 20260902220511 | 33 | 241 | 4.8 | 9.7 | 0.00 | 0.00 | 0.00 | 63 | 1015.5 |
| 20260902220005 | 33 | 276 | 4.8 | 9.7 | 0.00 | 0.00 | 0.00 | 61 | 1015.4 |
| 20260902215501 | 33 | 266 | 1.6 | 8.0 | 0.00 | 0.00 | 0.00 | 61 | 1015.5 |
| 20260902214957 | 33 | 206 | 4.8 | 11.3 | 0.00 | 0.00 | 0.00 | 61 | 1015.5 |
| 20260902214456 | 33 | 284 | 9.7 | 17.7 | 0.00 | 0.00 | 0.00 | 60 | 1015.3 |
| 20260902213955 | 33 | 217 | 8.0 | 16.1 | 0.00 | 0.00 | 0.00 | 61 | 1015.3 |
| 20260902213452 | 33 | 223 | 4.8 | 16.1 | 0.00 | 0.00 | 0.00 | 60 | 1015.3 |
| 20260902212950 | 33 | 273 | 6.4 | 20.9 | 0.00 | 0.00 | 0.00 | 58 | 1015.5 |
| 20260902212447 | 33 | 286 | 12.9 | 19.3 | 0.00 | 0.00 | 0.00 | 56 | 1015.5 |
| 20260902211942 | 33 | 252 | 4.8 | 14.5 | 0.00 | 0.00 | 0.00 | 59 | 1015.3 |
| 20260902211438 | 33 | 219 | 17.7 | 19.3 | 0.00 | 0.00 | 0.00 | 59 | 1015.5 |
| 20260902210933 | 33 | 247 | 6.4 | 19.3 | 0.00 | 0.00 | 0.00 | 59 | 1015.4 |
| 20260902210428 | 33 | 245 | 3.2 | 20.9 | 0.00 | 0.00 | 0.00 | 59 | 1015.8 |
| 20260902205926 | 33 | 202 | 8.0 | 8.0 | 0.00 | 0.00 | 0.00 | 60 | 1015.4 |
| 20260902205422 | 33 | 278 | 16.1 | 16.1 | 0.00 | 0.00 | 0.00 | 59 | 1015.5 |
| 20260902204917 | 33 | 242 | 3.2 | 24.1 | 0.00 | 0.00 | 0.00 | 58 | 1015.5 |
| 20260902204417 | 33 | 199 | 16.1 | 17.7 | 0.00 | 0.00 | 0.00 | 57 | 1015.8 |
| 20260902203913 | 33 | 277 | 12.9 | 16.1 | 0.00 | 0.00 | 0.00 | 57 | 1015.8 |
| 20260902203408 | 33 | 212 | 4.8 | 12.9 | 0.00 | 0.00 | 0.00 | 58 | 1015.9 |
| 20260902202907 | 33 | 237 | 9.7 | 14.5 | 0.00 | 0.00 | 0.00 | 57 | 1015.9 |
| 20260902202403 | 33 | 235 | 8.0 | 19.3 | 0.00 | 0.00 | 0.00 | 56 | 1016.0 |
| 20260902201859 | 33 | 225 | 20.9 | 27.4 | 0.00 | 0.00 | 0.00 | 56 | 1016.1 |
| 20260902201359 | 33 | 179 | 9.7 | 24.1 | 0.00 | 0.00 | 0.00 | 60 | 1015.9 |
| 20260902200854 | 33 | 249 | 6.4 | 19.3 | 0.00 | 0.00 | 0.00 | 61 | 1015.9 |
| 20260902200355 | 33 | 222 | 16.1 | 25.7 | 0.00 | 0.00 | 0.00 | 58 | 1016.0 |
| 20260902195850 | 33 | 204 | 16.1 | 25.7 | 0.00 | 0.00 | 0.00 | 58 | 1016.0 |
| 20260902195350 | 33 | 185 | 11.3 | 25.7 | 0.00 | 0.00 | 0.00 | 59 | 1016.2 |
| 20260902194845 | 33 | 201 | 20.9 | 29.0 | 0.00 | 0.00 | 0.00 | 56 | 1016.1 |
| 20260902194345 | 33 | 193 | 17.7 | 17.7 | 0.00 | 0.00 | 0.00 | 58 | 1016.0 |
| 20260902193840 | 33 | 201 | 14.5 | 22.5 | 0.00 | 0.00 | 0.00 | 58 | 1016.2 |
| 20260902193336 | 33 | 254 | 14.5 | 27.4 | 0.00 | 0.00 | 0.00 | 59 | 1016.2 |
| 20260902192835 | 33 | 215 | 17.7 | 22.5 | 0.00 | 0.00 | 0.00 | 59 | 1016.3 |
| 20260902192334 | 33 | 181 | 9.7 | 17.7 | 0.00 | 0.00 | 0.00 | 59 | 1016.4 |
| 20260902191833 | 33 | 236 | 9.7 | 22.5 | 0.00 | 0.00 | 0.00 | 57 | 1016.2 |
| 20260902191329 | 33 | 208 | 17.7 | 22.5 | 0.00 | 0.00 | 0.00 | 60 | 1016.4 |
| 20260902190824 | 33 | 180 | 11.3 | 22.5 | 0.00 | 0.00 | 0.00 | 58 | 1016.6 |
| 20260902190323 | 33 | 157 | 17.7 | 20.9 | 0.00 | 0.00 | 0.00 | 58 | 1016.5 |
| 20260902185820 | 33 | 194 | 4.8 | 16.1 | 0.00 | 0.00 | 0.00 | 60 | 1016.5 |
| 20260902185317 | 33 | 192 | 11.3 | 22.5 | 0.00 | 0.00 | 0.00 | 59 | 1016.4 |
| 20260902184811 | 33 | 227 | 16.1 | 19.3 | 0.00 | 0.00 | 0.00 | 61 | 1016.4 |
| 20260902184306 | 33 | 185 | 22.5 | 24.1 | 0.00 | 0.00 | 0.00 | 58 | 1016.4 |
| 20260902183801 | 33 | 198 | 14.5 | 17.7 | 0.00 | 0.00 | 0.00 | 59 | 1016.4 |
| 20260902183258 | 33 | 184 | 9.7 | 19.3 | 0.00 | 0.00 | 0.00 | 59 | 1016.5 |
| 20260902182753 | 32 | 190 | 9.7 | 17.7 | 0.00 | 0.00 | 0.00 | 59 | 1016.5 |
| 20260902182250 | 33 | 218 | 14.5 | 17.7 | 0.00 | 0.00 | 0.00 | 61 | 1016.7 |
| 20260902181746 | 33 | 217 | 9.7 | 16.1 | 0.00 | 0.00 | 0.00 | 59 | 1016.7 |
| 20260902181245 | 33 | 233 | 9.7 | 17.7 | 0.00 | 0.00 | 0.00 | 60 | 1016.8 |
| 20260902180740 | 32 | 182 | 8.0 | 12.9 | 0.00 | 0.00 | 0.00 | 60 | 1016.8 |
| 20260902180236 | 33 | 188 | 14.5 | 16.1 | 0.00 | 0.00 | 0.00 | 59 | 1016.8 |
| 20260902175731 | 32 | 221 | 17.7 | 19.3 | 0.00 | 0.00 | 0.00 | 58 | 1017.0 |
| 20260902175226 | 32 | 186 | 12.9 | 20.9 | 0.00 | 0.00 | 0.00 | 60 | 1017.1 |
| 20260902174722 | 32 | 227 | 16.1 | 20.9 | 0.00 | 0.00 | 0.00 | 57 | 1017.0 |
| 20260902174218 | 32 | 228 | 9.7 | 16.1 | 0.00 | 0.00 | 0.00 | 60 | 1017.0 |
| 20260902173714 | 33 | 195 | 14.5 | 17.7 | 0.00 | 0.00 | 0.00 | 60 | 1017.3 |
| 20260902173208 | 33 | 181 | 8.0 | 16.1 | 0.00 | 0.00 | 0.00 | 60 | 1017.2 |
| 20260902172708 | 32 | 234 | 6.4 | 12.9 | 0.00 | 0.00 | 0.00 | 59 | 1017.2 |
| 20260902172207 | 32 | 313 | 4.8 | 11.3 | 0.00 | 0.00 | 0.00 | 59 | 1017.4 |
| 20260902171703 | 32 | 183 | 9.7 | 19.3 | 0.00 | 0.00 | 0.00 | 59 | 1017.3 |
| 20260902171158 | 32 | 209 | 11.3 | 17.7 | 0.00 | 0.00 | 0.00 | 62 | 1017.4 |
| 20260902170654 | 32 | 224 | 4.8 | 17.7 | 0.00 | 0.00 | 0.00 | 64 | 1017.3 |
| 20260902170149 | 32 | 230 | 11.3 | 14.5 | 0.00 | 0.00 | 0.00 | 60 | 1017.3 |
| 20260902165645 | 32 | 267 | 1.6 | 8.0 | 0.00 | 0.00 | 0.00 | 62 | 1017.4 |
| 20260902165144 | 32 | 236 | 9.7 | 12.9 | 0.00 | 0.00 | 0.00 | 63 | 1017.4 |
| 20260902164639 | 31 | 258 | 6.4 | 17.7 | 0.00 | 0.00 | 0.00 | 63 | 1017.6 |
| 20260902164138 | 31 | 206 | 12.9 | 20.9 | 0.00 | 0.00 | 0.00 | 62 | 1017.6 |
| 20260902163633 | 32 | 217 | 9.7 | 14.5 | 0.00 | 0.00 | 0.00 | 65 | 1017.6 |
| 20260902163133 | 31 | 237 | 3.2 | 14.5 | 0.00 | 0.00 | 0.00 | 65 | 1017.4 |
| 20260902162631 | 32 | 232 | 9.7 | 12.9 | 0.00 | 0.00 | 0.00 | 65 | 1017.6 |
| 20260902162126 | 32 | 290 | 3.2 | 11.3 | 0.00 | 0.00 | 0.00 | 65 | 1017.7 |
| 20260902161621 | 32 | 231 | 8.0 | 11.3 | 0.00 | 0.00 | 0.00 | 66 | 1017.7 |
| 20260902161118 | 31 | 238 | 9.7 | 12.9 | 0.00 | 0.00 | 0.00 | 66 | 1018.1 |
| 20260902160614 | 31 | 240 | 6.4 | 19.3 | 0.00 | 0.00 | 0.00 | 65 | 1017.7 |
| 20260902160109 | 31 | 217 | 4.8 | 16.1 | 0.00 | 0.00 | 0.00 | 66 | 1017.8 |
| 20260902155607 | 31 | 202 | 12.9 | 17.7 | 0.00 | 0.00 | 0.00 | 67 | 1017.8 |
| 20260902155106 | 31 | 236 | 4.8 | 17.7 | 0.00 | 0.00 | 0.00 | 67 | 1017.9 |
| 20260902154601 | 31 | 214 | 12.9 | 17.7 | 0.00 | 0.00 | 0.00 | 65 | 1017.8 |
| 20260902154056 | 31 | 218 | 6.4 | 14.5 | 0.00 | 0.00 | 0.00 | 67 | 1018.0 |
| 20260902153554 | 31 | 239 | 11.3 | 16.1 | 0.00 | 0.00 | 0.00 | 66 | 1018.2 |
| 20260902153050 | 30 | 256 | 4.8 | 14.5 | 0.00 | 0.00 | 0.00 | 68 | 1017.9 |
| 20260902152547 | 30 | 218 | 6.4 | 11.3 | 0.00 | 0.00 | 0.00 | 68 | 1017.7 |
| 20260902152041 | 30 | 253 | 11.3 | 14.5 | 0.00 | 0.00 | 0.00 | 67 | 1017.8 |
| 20260902151537 | 30 | 246 | 8.0 | 11.3 | 0.00 | 0.00 | 0.00 | 68 | 1017.7 |
| 20260902151036 | 30 | 219 | 14.5 | 16.1 | 0.00 | 0.00 | 0.00 | 67 | 1017.9 |
| 20260902150532 | 30 | 249 | 9.7 | 12.9 | 0.00 | 0.00 | 0.00 | 68 | 1017.8 |
| 20260902150027 | 30 | 237 | 11.3 | 17.7 | 0.00 | 0.00 | 0.00 | 70 | 1017.9 |
| 20260902145523 | 30 | 229 | 8.0 | 14.5 | 0.00 | 0.00 | 0.00 | 69 | 1018.0 |
| 20260902145022 | 30 | 216 | 6.4 | 16.1 | 0.00 | 0.00 | 0.00 | 69 | 1017.8 |
| 20260902144519 | 29 | 288 | 6.4 | 17.7 | 0.00 | 0.00 | 0.00 | 70 | 1017.8 |
| 20260902144019 | 30 | 302 | 4.8 | 11.3 | 0.00 | 0.00 | 0.00 | 71 | 1017.8 |
| 20260902143514 | 29 | 237 | 4.8 | 12.9 | 0.00 | 0.00 | 0.00 | 69 | 1017.7 |
| 20260902143010 | 29 | 247 | 8.0 | 14.5 | 0.00 | 0.00 | 0.00 | 69 | 1017.7 |
| 20260902142505 | 29 | 219 | 11.3 | 19.3 | 0.00 | 0.00 | 0.00 | 69 | 1017.8 |
| 20260902142000 | 28 | 269 | 1.6 | 16.1 | 0.00 | 0.00 | 0.00 | 71 | 1017.7 |
| 20260902141455 | 28 | 242 | 6.4 | 12.9 | 0.00 | 0.00 | 0.00 | 70 | 1017.5 |
| 20260902140955 | 28 | 202 | 3.2 | 17.7 | 0.00 | 0.00 | 0.00 | 71 | 1017.6 |
| 20260902140451 | 28 | 239 | 8.0 | 17.7 | 0.00 | 0.00 | 0.00 | 71 | 1017.6 |
| 20260902135950 | 28 | 251 | 1.6 | 16.1 | 0.00 | 0.00 | 0.00 | 71 | 1017.5 |
| 20260902135446 | 28 | 210 | 11.3 | 14.5 | 0.00 | 0.00 | 0.00 | 71 | 1017.6 |
| 20260902134945 | 28 | 341 | 0.0 | 16.1 | 0.00 | 0.00 | 0.00 | 72 | 1017.7 |
| 20260902134442 | 27 | 222 | 11.3 | 20.9 | 0.00 | 0.00 | 0.00 | 72 | 1017.8 |
| 20260902133941 | 27 | 233 | 9.7 | 14.5 | 0.00 | 0.00 | 0.00 | 72 | 1017.8 |
| 20260902133436 | 27 | 237 | 14.5 | 14.5 | 0.00 | 0.00 | 0.00 | 73 | 1017.8 |
| 20260902132931 | 27 | 248 | 11.3 | 12.9 | 0.00 | 0.00 | 0.00 | 74 | 1017.7 |
| 20260902132426 | 27 | 226 | 8.0 | 12.9 | 0.00 | 0.00 | 0.00 | 76 | 1017.8 |
| 20260902131921 | 27 | 240 | 4.8 | 17.7 | 0.00 | 0.00 | 0.00 | 76 | 1017.9 |
| 20260902131418 | 26 | 259 | 9.7 | 14.5 | 0.00 | 0.00 | 0.00 | 78 | 1018.0 |
| 20260902130917 | 26 | 226 | 9.7 | 16.1 | 0.00 | 0.00 | 0.00 | 78 | 1017.8 |
| 20260902130414 | 26 | 211 | 8.0 | 14.5 | 0.00 | 0.00 | 0.00 | 79 | 1017.8 |
| 20260902125908 | 26 | 229 | 9.7 | 12.9 | 0.00 | 0.00 | 0.00 | 80 | 1017.9 |
| 20260902125405 | 25 | 204 | 9.7 | 9.7 | 0.00 | 0.00 | 0.00 | 82 | 1018.0 |
| 20260902124900 | 25 | 215 | 6.4 | 11.3 | 0.00 | 0.00 | 0.00 | 83 | 1017.9 |
| 20260902124356 | 25 | 214 | 6.4 | 9.7 | 0.00 | 0.00 | 0.00 | 83 | 1017.7 |
| 20260902123851 | 25 | 224 | 9.7 | 14.5 | 0.00 | 0.00 | 0.00 | 84 | 1017.8 |
| 20260902123347 | 25 | 221 | 9.7 | 14.5 | 0.00 | 0.00 | 0.00 | 84 | 1018.0 |
| 20260902122845 | 25 | 226 | 6.4 | 12.9 | 0.00 | 0.00 | 0.00 | 85 | 1017.8 |
| 20260902122342 | 24 | 201 | 4.8 | 11.3 | 0.00 | 0.00 | 0.00 | 86 | 1017.9 |
| 20260902121841 | 24 | 226 | 9.7 | 9.7 | 0.00 | 0.00 | 0.00 | 87 | 1018.0 |
| 20260902121337 | 23 | 206 | 6.4 | 9.7 | 0.00 | 0.00 | 0.00 | 88 | 1018.0 |
| 20260902120832 | 23 | 212 | 4.8 | 9.7 | 0.00 | 0.00 | 0.00 | 89 | 1018.1 |
| 20260902120329 | 23 | 202 | 3.2 | 12.9 | 0.00 | 0.00 | 0.00 | 89 | 1018.0 |
| 20260902115828 | 23 | 224 | 3.2 | 11.3 | 0.00 | 0.00 | 0.00 | 90 | 1018.0 |
| 20260902115325 | 23 | 174 | 3.2 | 8.0 | 0.00 | 0.00 | 0.00 | 90 | 1017.9 |
| 20260902114821 | 23 | 201 | 4.8 | 6.4 | 0.00 | 0.00 | 0.00 | 91 | 1017.9 |
| 20260902114317 | 23 | 217 | 4.8 | 9.7 | 0.00 | 0.00 | 0.00 | 92 | 1017.9 |
| 20260902113816 | 23 | 221 | 3.2 | 4.8 | 0.00 | 0.00 | 0.00 | 92 | 1017.9 |
| 20260902113312 | 22 | 200 | 3.2 | 6.4 | 0.00 | 0.00 | 0.00 | 93 | 1017.8 |
| 20260902112811 | 22 | 226 | 3.2 | 4.8 | 0.00 | 0.00 | 0.00 | 93 | 1017.7 |
| 20260902112308 | 22 | 192 | 1.6 | 3.2 | 0.00 | 0.00 | 0.00 | 93 | 1017.6 |
| 20260902111803 | 22 | 205 | 0.0 | 3.2 | 0.00 | 0.00 | 0.00 | 93 | 1017.8 |
| 20260902111300 | 22 | 207 | 3.2 | 4.8 | 0.00 | 0.00 | 0.00 | 94 | 1017.7 |
| 20260902110755 | 22 | 181 | 1.6 | 3.2 | 0.00 | 0.00 | 0.00 | 94 | 1017.5 |
| 20260902110251 | 22 | 219 | 3.2 | 4.8 | 0.00 | 0.00 | 0.00 | 93 | 1017.6 |
| 20260902105750 | 22 | 234 | 0.0 | 3.2 | 0.00 | 0.00 | 0.00 | 93 | 1017.5 |
| 20260902105246 | 22 | 194 | 1.6 | 4.8 | 0.00 | 0.00 | 0.00 | 94 | 1017.5 |
| 20260902104741 | 22 | 189 | 3.2 | 3.2 | 0.00 | 0.00 | 0.00 | 94 | 1017.5 |
| 20260902104237 | 22 | 202 | 3.2 | 4.8 | 0.00 | 0.00 | 0.00 | 93 | 1017.5 |
| 20260902103736 | 22 | 198 | 4.8 | 4.8 | 0.00 | 0.00 | 0.00 | 93 | 1017.4 |
| 20260902103231 | 22 | 191 | 1.6 | 4.8 | 0.00 | 0.00 | 0.00 | 93 | 1017.4 |
| 20260902102727 | 22 | 219 | 3.2 | 4.8 | 0.00 | 0.00 | 0.00 | 93 | 1017.3 |
| 20260902102224 | 22 | 193 | 1.6 | 3.2 | 0.00 | 0.00 | 0.00 | 93 | 1017.3 |
| 20260902101719 | 22 | 213 | 3.2 | 3.2 | 0.00 | 0.00 | 0.00 | 93 | 1017.3 |
| 20260902101214 | 23 | 207 | 1.6 | 3.2 | 0.00 | 0.00 | 0.00 | 93 | 1017.2 |
| 20260902100713 | 23 | 171 | 3.2 | 3.2 | 0.00 | 0.00 | 0.00 | 93 | 1017.0 |
| 20260902100208 | 23 | 177 | 1.6 | 4.8 | 0.00 | 0.00 | 0.00 | 92 | 1017.2 |
| 20260902095708 | 23 | 215 | 1.6 | 4.8 | 0.00 | 0.00 | 0.00 | 92 | 1017.2 |
| 20260902095202 | 23 | 215 | 3.2 | 3.2 | 0.00 | 0.00 | 0.00 | 92 | 1017.2 |
| 20260902094657 | 23 | 203 | 1.6 | 4.8 | 0.00 | 0.00 | 0.00 | 92 | 1017.1 |
| 20260902094153 | 23 | 216 | 3.2 | 4.8 | 0.00 | 0.00 | 0.00 | 93 | 1016.9 |
| 20260902093652 | 23 | 191 | 3.2 | 6.4 | 0.00 | 0.00 | 0.00 | 93 | 1017.1 |
| 20260902093148 | 23 | 199 | 3.2 | 4.8 | 0.00 | 0.00 | 0.00 | 93 | 1016.9 |
| 20260902092643 | 23 | 216 | 1.6 | 3.2 | 0.00 | 0.00 | 0.00 | 93 | 1017.0 |
| 20260902092143 | 23 | 206 | 1.6 | 3.2 | 0.00 | 0.00 | 0.00 | 93 | 1017.1 |
| 20260902091637 | 23 | 208 | 3.2 | 4.8 | 0.00 | 0.00 | 0.00 | 93 | 1017.1 |
| 20260902091134 | 23 | 214 | 3.2 | 3.2 | 0.00 | 0.00 | 0.00 | 93 | 1017.0 |
| 20260902090630 | 23 | 190 | 1.6 | 3.2 | 0.00 | 0.00 | 0.00 | 92 | 1017.0 |
| 20260902090128 | 23 | 204 | 3.2 | 3.2 | 0.00 | 0.00 | 0.00 | 92 | 1017.0 |
| 20260902085624 | 23 | 203 | 3.2 | 4.8 | 0.00 | 0.00 | 0.00 | 92 | 1016.8 |
| 20260902085119 | 23 | 183 | 3.2 | 6.4 | 0.00 | 0.00 | 0.00 | 92 | 1016.7 |
| 20260902084615 | 23 | 191 | 3.2 | 4.8 | 0.00 | 0.00 | 0.00 | 91 | 1016.8 |
| 20260902084110 | 23 | 205 | 4.8 | 6.4 | 0.00 | 0.00 | 0.00 | 91 | 1016.9 |
| 20260902083606 | 24 | 235 | 3.2 | 4.8 | 0.00 | 0.00 | 0.00 | 91 | 1016.9 |
| 20260902083105 | 24 | 263 | 3.2 | 3.2 | 0.00 | 0.00 | 0.00 | 90 | 1016.9 |
| 20260902082601 | 24 | 183 | 0.0 | 4.8 | 0.00 | 0.00 | 0.00 | 90 | 1017.2 |
| 20260902082057 | 24 | 226 | 3.2 | 3.2 | 0.00 | 0.00 | 0.00 | 89 | 1017.1 |
| 20260902081554 | 25 | 243 | 3.2 | 4.8 | 0.00 | 0.00 | 0.00 | 89 | 1016.9 |
| 20260902081053 | 25 | 258 | 3.2 | 6.4 | 0.00 | 0.00 | 0.00 | 89 | 1017.0 |
| 20260902080553 | 25 | 269 | 3.2 | 6.4 | 0.00 | 0.00 | 0.00 | 89 | 1016.9 |
| 20260902080050 | 25 | 303 | 1.6 | 8.0 | 0.00 | 0.00 | 0.00 | 90 | 1016.9 |
| 20260902075550 | 25 | 192 | 3.2 | 8.0 | 0.00 | 0.00 | 0.00 | 90 | 1016.8 |
| 20260902075046 | 25 | 223 | 3.2 | 9.7 | 0.00 | 0.00 | 0.00 | 90 | 1017.1 |
| 20260902074541 | 25 | 208 | 8.0 | 9.7 | 0.00 | 0.00 | 0.00 | 90 | 1016.9 |
| 20260902074036 | 25 | 206 | 3.2 | 8.0 | 0.00 | 0.00 | 0.00 | 90 | 1016.9 |
| 20260902073531 | 25 | 220 | 4.8 | 6.4 | 0.00 | 0.00 | 0.00 | 90 | 1016.9 |
| 20260902073028 | 25 | 186 | 3.2 | 9.7 | 0.00 | 0.00 | 0.00 | 90 | 1017.0 |
| 20260902072523 | 25 | 239 | 0.0 | 4.8 | 0.00 | 0.00 | 0.00 | 90 | 1016.7 |
| 20260902072020 | 25 | 188 | 3.2 | 8.0 | 0.00 | 0.00 | 0.00 | 90 | 1017.0 |
| 20260902071519 | 25 | 229 | 3.2 | 4.8 | 0.00 | 0.00 | 0.00 | 90 | 1016.9 |
| 20260902071016 | 25 | 183 | 3.2 | 6.4 | 0.00 | 0.00 | 0.00 | 91 | 1016.9 |
| 20260902070511 | 25 | 214 | 1.6 | 4.8 | 0.00 | 0.00 | 0.00 | 91 | 1016.8 |
| 20260902070011 | 24 | 232 | 4.8 | 8.0 | 0.00 | 0.00 | 0.00 | 91 | 1016.8 |
| 20260902065505 | 24 | 190 | 3.2 | 6.4 | 0.00 | 0.00 | 0.00 | 91 | 1016.7 |
| 20260902065000 | 24 | 187 | 3.2 | 6.4 | 0.00 | 0.00 | 0.00 | 91 | 1016.8 |
| 20260902064456 | 24 | 196 | 0.0 | 3.2 | 0.00 | 0.00 | 0.00 | 91 | 1016.8 |
| 20260902063952 | 24 | 199 | 0.0 | 3.2 | 0.00 | 0.00 | 0.00 | 91 | 1016.8 |
| 20260902063451 | 25 | 193 | 1.6 | 3.2 | 0.00 | 0.00 | 0.00 | 90 | 1016.7 |
| 20260902062947 | 25 | 171 | 0.0 | 3.2 | 0.00 | 0.00 | 0.00 | 90 | 1016.8 |
| 20260902062445 | 25 | 200 | 3.2 | 3.2 | 0.00 | 0.00 | 0.00 | 90 | 1016.8 |
| 20260902061940 | 25 | 195 | 0.0 | 0.0 | 0.00 | 0.00 | 0.00 | 89 | 1016.8 |
| 20260902061435 | 25 | 188 | 1.6 | 3.2 | 0.00 | 0.00 | 0.00 | 89 | 1016.9 |
| 20260902060932 | 25 | 187 | 1.6 | 3.2 | 0.00 | 0.00 | 0.00 | 89 | 1017.0 |
| 20260902060427 | 25 | 209 | 3.2 | 3.2 | 0.00 | 0.00 | 0.00 | 88 | 1016.8 |
| 20260902055923 | 25 | 206 | 3.2 | 3.2 | 0.00 | 0.00 | 0.00 | 88 | 1017.1 |
| 20260902055419 | 25 | 180 | 1.6 | 3.2 | 0.00 | 0.00 | 0.00 | 88 | 1017.0 |
| 20260902054914 | 25 | 231 | 0.0 | 3.2 | 0.00 | 0.00 | 0.00 | 87 | 1017.1 |
| 20260902054409 | 25 | 199 | 0.0 | 3.2 | 0.00 | 0.00 | 0.00 | 87 | 1016.9 |
| 20260902053904 | 25 | 199 | 3.2 | 3.2 | 0.00 | 0.00 | 0.00 | 86 | 1017.0 |
| 20260902053400 | 26 | 216 | 1.6 | 3.2 | 0.00 | 0.00 | 0.00 | 86 | 1016.9 |
| 20260902052859 | 26 | 228 | 0.0 | 4.8 | 0.00 | 0.00 | 0.00 | 86 | 1017.0 |
| 20260902052354 | 26 | 227 | 1.6 | 1.6 | 0.00 | 0.00 | 0.00 | 86 | 1016.8 |
| 20260902051849 | 26 | 209 | 3.2 | 4.8 | 0.00 | 0.00 | 0.00 | 86 | 1017.0 |
| 20260902051344 | 26 | 227 | 3.2 | 4.8 | 0.00 | 0.00 | 0.00 | 86 | 1017.1 |
| 20260902050843 | 26 | 277 | 3.2 | 4.8 | 0.00 | 0.00 | 0.00 | 87 | 1017.0 |
| 20260902050342 | 26 | 267 | 3.2 | 6.4 | 0.00 | 0.00 | 0.00 | 87 | 1017.1 |
| 20260902045838 | 26 | 284 | 1.6 | 4.8 | 0.00 | 0.00 | 0.00 | 87 | 1017.0 |
| 20260902045334 | 26 | 241 | 4.8 | 6.4 | 0.00 | 0.00 | 0.00 | 86 | 1016.9 |
| 20260902044830 | 26 | 198 | 4.8 | 6.4 | 0.00 | 0.00 | 0.00 | 86 | 1016.9 |
| 20260902044325 | 26 | 197 | 6.4 | 8.0 | 0.00 | 0.00 | 0.00 | 86 | 1016.7 |
| 20260902043826 | 26 | 222 | 11.3 | 12.9 | 0.00 | 0.00 | 0.00 | 86 | 1016.8 |
| 20260902043321 | 26 | 236 | 3.2 | 8.0 | 0.00 | 0.00 | 0.00 | 86 | 1017.1 |
| 20260902042820 | 26 | 225 | 11.3 | 12.9 | 0.00 | 0.00 | 0.00 | 87 | 1016.9 |
| 20260902042315 | 26 | 217 | 0.0 | 6.4 | 0.00 | 0.00 | 0.00 | 86 | 1016.7 |
| 20260902041810 | 26 | 205 | 3.2 | 8.0 | 0.00 | 0.00 | 0.00 | 86 | 1016.7 |
| 20260902041310 | 26 | 225 | 4.8 | 9.7 | 0.00 | 0.00 | 0.00 | 86 | 1016.8 |
| 20260902040809 | 26 | 210 | 8.0 | 8.0 | 0.00 | 0.00 | 0.00 | 86 | 1016.9 |
| 20260902040305 | 26 | 209 | 4.8 | 6.4 | 0.00 | 0.00 | 0.00 | 86 | 1016.8 |
| 20260902035803 | 26 | 206 | 3.2 | 9.7 | 0.00 | 0.23 | 0.23 | 86 | 1016.8 |
| 20260902035259 | 26 | 194 | 3.2 | 6.4 | 0.00 | 0.23 | 0.23 | 86 | 1016.9 |
| 20260902034757 | 26 | 208 | 6.4 | 8.0 | 0.00 | 0.23 | 0.23 | 86 | 1016.9 |
| 20260902034253 | 26 | 190 | 3.2 | 8.0 | 0.00 | 0.23 | 0.23 | 86 | 1016.8 |
| 20260902033750 | 26 | 189 | 3.2 | 6.4 | 0.00 | 0.23 | 0.23 | 86 | 1016.8 |
| 20260902033246 | 26 | 183 | 4.8 | 6.4 | 0.00 | 0.23 | 0.23 | 86 | 1016.7 |
| 20260902032745 | 26 | 198 | 4.8 | 8.0 | 0.00 | 0.23 | 0.23 | 86 | 1016.8 |
| 20260902032240 | 26 | 195 | 3.2 | 6.4 | 0.00 | 0.23 | 0.23 | 86 | 1016.7 |
| 20260902031740 | 26 | 207 | 3.2 | 4.8 | 0.00 | 0.23 | 0.23 | 86 | 1016.9 |
| 20260902031235 | 26 | 194 | 4.8 | 6.4 | 0.00 | 0.23 | 0.23 | 86 | 1016.9 |
| 20260902030731 | 26 | 203 | 3.2 | 8.0 | 0.00 | 0.23 | 0.23 | 86 | 1016.8 |
| 20260902030231 | 26 | 184 | 3.2 | 6.4 | 0.00 | 0.23 | 0.23 | 86 | 1016.7 |
| 20260902025730 | 26 | 187 | 3.2 | 6.4 | 0.00 | 0.23 | 0.23 | 86 | 1016.8 |
| 20260902025225 | 27 | 216 | 3.2 | 4.8 | 0.00 | 0.23 | 0.23 | 86 | 1016.8 |
| 20260902024721 | 27 | 196 | 3.2 | 4.8 | 0.00 | 0.23 | 0.23 | 86 | 1016.5 |
| 20260902024216 | 27 | 173 | 4.8 | 6.4 | 0.00 | 0.23 | 0.23 | 86 | 1016.7 |
| 20260902023711 | 27 | 204 | 4.8 | 6.4 | 0.00 | 0.23 | 0.23 | 87 | 1016.8 |
| 20260902023207 | 27 | 187 | 3.2 | 4.8 | 0.00 | 0.23 | 0.23 | 87 | 1016.9 |
| 20260902022706 | 27 | 199 | 3.2 | 4.8 | 0.00 | 0.23 | 0.23 | 86 | 1017.0 |
| 20260902022202 | 27 | 220 | 3.2 | 4.8 | 0.00 | 0.23 | 0.23 | 87 | 1017.0 |
| 20260902021658 | 27 | 189 | 3.2 | 4.8 | 0.00 | 0.23 | 0.23 | 87 | 1016.8 |
| 20260902021157 | 27 | 208 | 3.2 | 4.8 | 0.00 | 0.23 | 0.23 | 88 | 1016.8 |
| 20260902020653 | 26 | 199 | 3.2 | 4.8 | 0.00 | 0.23 | 0.23 | 88 | 1016.9 |
| 20260902020149 | 26 | 199 | 3.2 | 4.8 | 0.00 | 0.23 | 0.23 | 88 | 1016.7 |
| 20260902015644 | 26 | 184 | 3.2 | 3.2 | 0.00 | 0.23 | 0.23 | 89 | 1016.8 |
| 20260902015141 | 26 | 200 | 1.6 | 4.8 | 0.00 | 0.23 | 0.23 | 89 | 1016.6 |
| 20260902014636 | 26 | 194 | 1.6 | 3.2 | 0.00 | 0.23 | 0.23 | 89 | 1016.7 |
| 20260902014132 | 26 | 191 | 1.6 | 3.2 | 0.00 | 0.23 | 0.23 | 89 | 1016.7 |
| 20260902013631 | 26 | 154 | 0.0 | 1.6 | 0.00 | 0.23 | 0.23 | 89 | 1016.8 |
| 20260902013127 | 26 | 242 | 0.0 | 0.0 | 0.00 | 0.23 | 0.23 | 89 | 1016.9 |
| 20260902012622 | 26 | 75 | 0.0 | 0.0 | 0.00 | 0.23 | 0.23 | 88 | 1016.9 |
| 20260902012118 | 27 | 230 | 0.0 | 0.0 | 0.00 | 0.23 | 0.23 | 88 | 1016.9 |
| 20260902011614 | 27 | 205 | 0.0 | 0.0 | 0.00 | 0.23 | 0.23 | 88 | 1016.6 |